Location: Brad
(46.1333°N, 22.7833°E)
Time: 11:14:31
(UTC+00:00)

Cosmos 1408 - Pass Details

Date: 03 February 2023
Orbit: 431 x 463 km, 82.6° (Epoch: 01 April)

Event Time Altitude Azimuth Distance (km) Brightness Sun altitude
Rises 16:08:18 0° 177° (S) 2,401 6.3 -6.0°
Reaches altitude 10° 16:10:20 10° 173° (S) 1,543 5.3 -6.4°
Maximum altitude 16:13:37 54° 95° (E) 541 2.5 -6.9°
Drops below altitude 10° 16:16:59 10° 17° (NNE) 1,579 4.8 -7.5°
Sets 16:19:06 0° 13° (NNE) 2,464 5.9 -7.8°
